This demonstration page uses our WeatherBlox Daily Observations layout. Learn more.

Left ArrowRight Arrow

39.51506, -84.39828

Hourly Observations for March 10, 2021

Temp ( °F °C ) Dew Point ( °F °C ) Humidity (%) Winds ( mph kmh ) Pressure ( in mb ) Visibility ( mi km ) Precip ( " mm )
12:15 am 00:15 Clear 37 2.6 32 undefined 83 83 N N/A 30.32 1027 10 16 N/A
12:35 am 00:35 Clear 36 2.4 33 0.3 86 86 N N/A 30.32 1027 10 16 N/A
12:55 am 00:55 Clear 36 2.2 32 undefined 86 86 N N/A 30.32 1027 10 16 N/A
1:15 am 01:15 Clear 35 1.8 31 -0.3 86 86 N N/A 30.32 1027 10 16 N/A
1:35 am 01:35 Clear 34 1.3 31 -0.3 89 89 N N/A 30.31 1026 10 16 N/A
1:55 am 01:55 Clear 36 2.1 32 -0.1 86 86 N N/A 30.32 1027 10 16 N/A
2:15 am 02:15 Clear 37 2.6 31 -0.4 81 81 N N/A 30.31 1026 10 16 N/A
2:35 am 02:35 Clear 34 1.2 31 -0.4 89 89 N N/A 30.31 1026 10 16 N/A
2:55 am 02:55 Clear 34 1.3 31 -0.6 87 87 N N/A 30.31 1026 10 16 N/A
3:15 am 03:15 Clear 35 1.4 31 -0.6 87 87 N N/A 30.30 1026 10 16 N/A
3:35 am 03:35 Clear 34 1 32 -0.2 92 92 N N/A 30.30 1026 10 16 N/A
3:55 am 03:55 Clear 34 1.2 31 -0.5 89 89 N N/A 30.29 1026 10 16 N/A
4:15 am 04:15 Clear 34 1.1 31 -0.5 89 89 N N/A 30.30 1026 10 16 N/A
4:35 am 04:35 Clear 34 1.1 31 -0.7 88 88 N N/A 30.30 1026 10 16 N/A
4:55 am 04:55 Clear 34 1.1 31 -0.8 87 87 N N/A 30.30 1026 10 16 N/A
5:15 am 05:15 Clear 33 0.8 31 -0.5 91 91 N N/A 30.31 1027 10 16 N/A
5:35 am 05:35 Clear 33 0.8 31 -0.8 89 89 N N/A 30.31 1027 10 16 N/A
5:55 am 05:55 Clear 33 0.5 31 -0.6 92 92 N N/A 30.31 1027 10 16 N/A
6:15 am 06:15 Clear 33 0.6 30 -0.9 90 90 N N/A 30.32 1027 10 16 N/A
6:35 am 06:35 Partly Cloudy 33 0.7 30 -0.9 89 89 N N/A 30.32 1027 10 16 N/A
6:55 am 06:55 Mostly Cloudy 34 1 31 -0.8 88 88 N N/A 30.32 1027 10 16 N/A
7:15 am 07:15 Mostly Cloudy 34 1.1 30 -0.9 87 87 N N/A 30.32 1027 10 16 N/A
7:35 am 07:35 Mostly Cloudy 35 1.6 31 -0.5 86 86 N N/A 30.33 1027 10 16 N/A
7:55 am 07:55 Mostly Cloudy 39 3.8 36 2.1 89 89 N N/A 30.33 1027 10 16 N/A
8:15 am 08:15 Cloudy 42 5.7 38 3.1 84 84 N N/A 30.32 1027 10 16 N/A
8:35 am 08:35 Cloudy 47 8.5 38 3.3 70 70 S 6 9 30.31 1027 10 16 N/A
8:55 am 08:55 Cloudy 51 10.8 35 1.5 53 53 SSW 7 11 30.31 1026 10 16 N/A
9:15 am 09:15 Cloudy 54 12 33 0.4 45 45 SSW 10 17 30.30 1026 10 16 N/A
9:35 am 09:35 Mostly Cloudy 56 13.4 32 -0.1 40 40 S 15 24 30.29 1026 10 16 N/A
9:55 am 09:55 Sunny 58 14.6 33 0.4 38 38 SSW 14 22 30.28 1025 10 16 N/A
10:15 am 10:15 Sunny 60 15.6 33 0.8 37 37 SSW 15 24 30.28 1025 10 16 N/A
10:35 am 10:35 Sunny 63 17 35 1.9 36 36 S 15 24 30.26 1025 10 16 N/A
10:55 am 10:55 Sunny 64 17.8 37 2.5 36 36 S 15 24 30.25 1024 10 16 N/A
11:15 am 11:15 Sunny 65 18.3 40 4.5 40 40 SSW 21 33 30.25 1024 10 16 N/A
11:35 am 11:35 Sunny 67 19.4 42 5.4 40 40 SSW 21 33 30.24 1024 10 16 N/A
11:55 am 11:55 Sunny 68 19.8 42 5.8 40 40 SSW 17 28 30.23 1024 10 16 N/A
12:15 pm 12:15 Mostly Cloudy 67 19.2 43 6 42 42 SSW 20 31 30.23 1024 10 16 N/A
12:35 pm 12:35 Partly Cloudy 67 19.5 45 7 44 44 SSW 20 31 30.22 1023 10 16 N/A
12:55 pm 12:55 Partly Cloudy 68 20 45 7.3 44 44 SSW 28 44 30.20 1023 10 16 N/A
1:15 pm 13:15 Hazy 70 21 46 7.7 42 42 SSW 23 37 30.18 1022 4 6 N/A
1:35 pm 13:35 Sunny 69 20.8 45 7.3 42 42 SSW 25 41 30.17 1022 7 11 N/A
1:55 pm 13:55 Sunny 70 20.9 44 6.6 40 40 SSW 26 43 30.17 1022 10 16 N/A
2:15 pm 14:15 Sunny 70 20.9 43 6 38 38 S 25 41 30.15 1021 10 16 N/A
2:35 pm 14:35 Sunny 70 21 42 5.7 37 37 S 18 30 30.14 1021 10 16 N/A
2:55 pm 14:55 Sunny 69 20.6 42 5.5 37 37 S 21 33 30.13 1020 10 16 N/A
3:15 pm 15:15 Sunny 70 20.9 42 5.5 37 37 SSW 23 37 30.13 1020 10 16 N/A
3:35 pm 15:35 Sunny 70 20.9 42 5.5 37 37 SSW 21 33 30.13 1020 10 16 N/A
3:55 pm 15:55 Sunny 69 20.7 42 5.5 37 37 SSW 17 28 30.12 1020 10 16 N/A
4:15 pm 16:15 Sunny 69 20.5 41 5.2 37 37 SSW 18 30 30.12 1020 10 16 N/A
4:35 pm 16:35 Sunny 69 20.4 42 5.5 38 38 SSW 21 33 30.12 1020 10 16 N/A
4:55 pm 16:55 Sunny 69 20.4 42 5.5 38 38 SSW 23 37 30.11 1020 10 16 N/A
5:15 pm 17:15 Sunny 68 20.1 42 5.5 39 39 SSW 20 31 30.11 1020 10 16 N/A
5:35 pm 17:35 Sunny 68 20 42 5.3 38 38 SSW 20 31 30.11 1020 10 16 N/A
5:55 pm 17:55 Sunny 68 19.9 41 5.2 38 38 SSW 20 31 30.10 1019 10 16 N/A
6:15 pm 18:15 Sunny 67 19.7 42 5.3 39 39 S 17 28 30.11 1019 10 16 N/A
6:35 pm 18:35 Sunny 67 19.5 42 5.5 40 40 S 16 26 30.11 1019 10 16 N/A
6:55 pm 18:55 Clear 66 19 42 5.5 41 41 S 21 33 30.11 1020 10 16 N/A
7:15 pm 19:15 Clear 66 18.9 42 5.6 42 42 S 16 26 30.11 1020 10 16 N/A
7:35 pm 19:35 Clear 65 18.3 42 5.6 43 43 S 14 22 30.11 1020 10 16 N/A
7:55 pm 19:55 Clear 64 17.7 42 5.3 44 44 S 9 15 30.11 1020 10 16 N/A
8:15 pm 20:15 Clear 64 17.8 41 4.8 42 42 SSW 13 20 30.12 1020 10 16 N/A
8:35 pm 20:35 Clear 64 17.8 41 4.9 43 43 SSW 13 20 30.13 1020 10 16 N/A
8:55 pm 20:55 Clear 64 17.7 41 4.9 43 43 SSW 13 20 30.13 1020 10 16 N/A
9:15 pm 21:15 Clear 64 17.5 41 4.9 44 44 SSW 12 19 30.13 1020 10 16 N/A
9:35 pm 21:35 Clear 63 17.4 41 4.8 44 44 SSW 13 20 30.13 1020 10 16 N/A
9:55 pm 21:55 Clear 64 17.7 40 4.7 42 42 SSW 14 22 30.13 1020 10 16 N/A
10:15 pm 22:15 Clear 63 17.2 40 4.6 43 43 S 14 22 30.13 1020 10 16 N/A
10:35 pm 22:35 Clear 62 16.9 40 4.5 44 44 S 13 20 30.13 1020 10 16 N/A
10:55 pm 22:55 Partly Cloudy 62 16.5 40 4.5 45 45 S 12 19 30.13 1020 10 16 N/A
11:15 pm 23:15 Clear 61 16.1 40 4.6 47 47 S 10 17 30.12 1020 10 16 N/A
11:35 pm 23:35 Mostly Cloudy 61 16.3 40 4.5 46 46 S 14 22 30.12 1020 10 16 N/A
11:55 pm 23:55 Mostly Cloudy 62 16.4 40 4.3 45 45 S 15 24 30.12 1020 10 16 N/A

Powered by AerisWeather